COSMOS 2491 DEB, 45127

Orbit data source: Space-Track

COSMOS 2491 DEB, 45127 is space debris in LEO originally from a launch on Wed, 25 Dec 2013 UTC launched from the Plesetsk Missile And Space Complex (PKMTR). Debris objects in space refer to the collection of defunct objects orbiting the Earth. Examples of debris include non-operational satellites, rocket bodies, and fragments generated from explosions, collisions, or faulty payload assembly.

Loading next visibility...
Identifier
45127, 2013-076Z
Orbit
LEO
Country
Flag of CISCIS
Related business
Manufacturer
TsNIIKhM
Mission
Spacecraft
Bus & Motor
Unknown
Mass
Unknown
Launch date (UTC)
2013-12-25 (13 years ago)
Launch vehicle
Unknown
Launch site
Plesetsk Missile And Space Complex (PKMTR)
Object type
Payload
Rocket body
Debris
Shape & HBR
Unknown shape, 0.1 m
Radar Cross Section
Small (<0.1 m²)

Expand to show TLE details & history
Last TLE update: 3 days ago

TLE from 3 days ago
0 COSMOS 2491 DEB
1 45127U 13076Z   26253.24125205  .00001428  00000-0  78123-2 0  9993
2 45127  82.4522  67.9470 0068390 348.6273  11.3269 12.62703571303985
Epoch: 2026-09-10T05:47Z
TLE epoch observation values (Epoch: 2026-09-10T05:47:24.177Z)
Latitude
-0.00001°
Longitude
-8.18552°
Altitude
1,362.3 km
Speed
7.201 km/s
True Right ascension
04h 31m 47s
True Declination
0° 00' 00"
Sunlit
Object was in daylight at epoch
Visualization orbit readout
Latitude
Unknown
Longitude
Unknown
Altitude
Unknown
Speed
Unknown
Apparent Right ascension
Unknown
Apparent Declination
Unknown
Sunlit
N/A
Visualization observer readout
Local Sidereal Time
01:47:51
Azimuth
Unknown
Elevation
Unknown
Doppler factor
Unknown
Orbital elements
Apogee altitude
1,462.387 km
Perigee altitude
1,355.873 km
Semi-major axis
7,787.267 km
Eccentricity
0.00684
Inclination
82.4522°
RAAN
67.947°
Arg. of periapsis
348.6273°
True anomaly
11.48212°
Mean anomaly
11.3269°
Eccentric anomaly
11.40438°
Mean motion
3.15839 °/min
Orbital period
113.98 mins
BSTAR
0.0078123
Loading maneuver chart data...
Computing Atmospheric mass density...
Loading historical data...
Loading historical data...
Loading historical data...
Loading historical data...
Loading historical data...
Loading historical data...
Loading historical data...

Documentation

Showing up to 5 results
|